Regional Weather Roundup
Issued by NWS

Home | Current Version | Previous Version | Graphics & Text | Print | Product List | Glossary On
Versions: 1 2 3 4 5 6 7 8 9 10 11 12 13 14 15 16 17 18 19 20 21 22 23 24 25 26 27 28 29 30 31 32 33 34 35 36 37 38 39 40 41 42 43 44 45 46 47 48 49 50
000
ASUS45 KBOU 211307
RWRCO

WEATHER ROUNDUP FOR COLORADO
NATIONAL WEATHER SERVICE DENVER/BOULDER CO
700 AM MDT SAT OCT 21 2017

NOTE: "FAIR" INDICATES FEW OR NO CLOUDS BELOW 12000 FEET WITH NO
SIGNIFICANT WEATHER AND/OR OBSTRUCTIONS TO VISIBILITY.

COZ001>005-013-030-031-211400-
...NORTHWEST COLORADO...

CITY           SKY/WX    TMP DP  RH WIND       PRES   REMARKS
CRAIG          FAIR      22  18  85 W7        30.05  WCI  13
HAYDEN         CLOUDY    23  21  92 CALM      30.06R
MEEKER         FAIR      27  26  96 SW5       30.08R WCI  22
RABBIT EARS PA SNOW      18  14  86 W10G24    29.96R VSB 1/2 WCI   6
STEAMBOAT SPGS CLOUDY    27  24  91 CALM      30.03R
WALDEN         NOT AVBL
$$

COZ006>008-011-211400-
...WEST CENTRAL VALLEYS...

CITY           SKY/WX    TMP DP  RH WIND       PRES   REMARKS
GRAND JUNCTION FAIR      37  17  44 NW3       30.08R
MONTROSE       FAIR      35  13  40 N6        30.09R WCI  30
EAGLE          NOT AVBL
RIFLE          FAIR      35  27  72 CALM      30.07R
DELTA          FAIR      43  22  43 W18       30.06R
NUCLA          FAIR      36  10  35 NW9       30.11R
$$

COZ017>023-064>068-211400-
...SOUTHWEST COLORADO...

CITY           SKY/WX    TMP DP  RH WIND       PRES   REMARKS
DURANGO        FAIR      43  22  43 W8        29.97R
CORTEZ         FAIR      38  13  35 N5        30.05R
PAGOSA SPRINGS FAIR      43  15  31 W15       29.99R
TELLURIDE      NOT AVBL
WOLF CREEK PAS FAIR      23  18  80 S20G31    30.07S WCI   8
$$

COZ009-010-012-014-032>034-037-058>063-211400-
...CENTRAL COLORADO...

CITY           SKY/WX    TMP DP  RH WIND       PRES   REMARKS
ASPEN          CLOUDY    30  27  88 CALM      30.02R
BUENA VISTA    FAIR      34  15  44 W12G17    29.93S WCI  26
COPPER MTN     CLOUDY    19  14  79 MISG      29.96R
BERTHOUD PASS  CLOUDY     9  -2  61 N40G52    29.85R WCI -17
COTTONWOOD PAS FAIR      32  18  55 W30G45    29.89F WCI  18
GUNNISON       FAIR      33  17  51 SW13      30.00R WCI  24
KREMMLING      FAIR      32  21  64 SW5       30.04R WCI  27
LEADVILLE      CLOUDY    22  13  68 W6G20     29.97R WCI  14
MONARCH PASS   CLOUDY    19  18  93 MISG      30.05R
SALIDA         FAIR      39  23  52 SW18      30.00R
SUNLIGHT       FAIR      16  12  86 MISG      30.07S
WILKERSON PASS FAIR      21   7  53 W12G20    29.94R WCI   9
$$

COZ069>075-211400-
...SAN LUIS VALLEY/SANGRE DE CRISTO MOUNTAINS...

CITY           SKY/WX    TMP DP  RH WIND       PRES   REMARKS
ALAMOSA        FAIR      37  25  61 N12       29.95R
DEL NORTE      FAIR      34  24  66 E3        29.95R
LA VETA PASS   FAIR      32  25  74 S16G39    30.05R WCI  21
SAGUACHE       FAIR      34  25  69 NW18G28   29.97R WCI  23
$$

COZ035-036-038>040-211400-
...NORTHERN COLORADO FRONT RANGE...

CITY           SKY/WX    TMP DP  RH WIND       PRES   REMARKS
DENVER INTL AP MOCLDY    42  18  37 N12       29.85R
DMNS CITY PARK   N/A     45  12  25 N13       29.87R
AURORA         MOCLDY    40  18  41 CALM      29.87R
FRONT RANGE AP CLOUDY    41  21  45 NE9       29.86R
ERIE MUNI ARPT FAIR      42  22  44 W8        29.90R
BOULDER MUN AP FAIR      45  10  24 W8        29.86R
CENTENNIAL     MOCLDY    45  18  34 NW6G21    29.87R
BROOMFIELD     PTCLDY    45  10  24 W25G40    29.85R
FORT COLLINS   FAIR      45  13  27 NW20      29.86R
LONGMONT       FAIR      49   8  19 W15G33    29.86R
$$

COZ041-046-047-076>085-087-088-211400-
...PIKES PEAK/PALMER DIVIDE AND SOUTHERN FOOTHILLS...

CITY           SKY/WX    TMP DP  RH WIND       PRES   REMARKS
COLO. SPRINGS  FAIR      48  19  31 N22G28    29.84R
A. F. ACADEMY  FAIR      42  15  33 N18G31    29.83S
SCHRIEVER AFB  FAIR      46  17  31 N16       29.83R
CHEYENNE MTN   FAIR      45  16  32 SW7       29.78R
ELLICOTT         N/A    N/A N/A N/A NE13      29.85R
FALCON         FAIR      42  14  31 NW8G18    29.88R
FORT CARSON    FAIR      42  26  53 NE7       29.80R
LIMON          FAIR      36  33  89 N23G32    29.85R
MONUMENT HILL  FAIR      34  25  69 NE12      29.90R WCI  25
CANON CITY     FAIR      52  27  37 W20G28    29.80R
WALSENBURG     FAIR      52  28  40 W22G31    29.83F
TRINIDAD       FAIR      53  29  39 N10       29.81R
$$

COZ042>045-048>051-090-091-211400-
...NORTHEAST COLORADO...

CITY           SKY/WX    TMP DP  RH WIND       PRES   REMARKS
GREELEY ARPT   MOCLDY    45  15  30 NW32G40   29.84R
AKRON          CLOUDY    39  32  76 NW15      29.84F
BURLINGTON     FAIR      49  24  37 N28G47    29.76R
WRAY           NOT AVBL
YUMA           RAIN      37  34  87 NW36G45   29.84R
STERLING       CLOUDY    46  21  36 N17G26    29.81F
HOLYOKE        FAIR      52  32  46 NW17G26   29.80R
FORT MORGAN    CLOUDY    44  19  35 NW21G29   29.88R
$$

COZ086-089-092>099-211400-
...SOUTHEAST COLORADO...

CITY           SKY/WX    TMP DP  RH WIND       PRES   REMARKS
PUEBLO         FAIR      51  34  52 NW13      29.79R
LA JUNTA       FAIR      51  34  52 NE10      29.79R
LAMAR          FAIR      53  31  42 NE12      29.75R
SPRINGFIELD      N/A     53  41  63 NW14      29.76R
$$



USA.gov is the U.S. government's official web portal to all federal, state and local government web resources and services.